,,Stat5,,Stat1,,Stat2,,Stat3,,Stat4,,Wind1,,Wind1,
time,status,PA1M_AVG,status,PR1M_SUM,status,RH1M_AVG,status,SR1M_AVG,status,TA1M_AVG,status,W1dAve1m,status,W1sAve1m,
2003-06-01, 00:00:00,VALID,918.231,VALID,0,VALID,99.2564,VALID,-0.0849042,VALID,18.1955,VALID,126,VALID,0,
2003-06-01, 00:01:00,VALID,918.223,VALID,0,VALID,99.1699,VALID,-0.0509425,VALID,18.1014,VALID,126,VALID,0,
2003-06-01, 00:02:00,VALID,918.216,VALID,0,VALID,99.1114,VALID,-0.0169808,VALID,18.0369,VALID,125,VALID,0,
2003-06-01, 00:03:00,VALID,918.191,VALID,0,VALID,98.9664,VALID,-0.0339617,VALID,17.9691,VALID,126,VALID,0.0855152,
2003-06-01, 00:04:00,VALID,918.183,VALID,0,VALID,98.8431,VALID,-0.0509425,VALID,17.8825,VALID,130,VALID,0.530297,
2003-06-01, 00:05:00,VALID,918.155,VALID,0,VALID,99.1063,VALID,-0.0679233,VALID,17.8497,VALID,133,VALID,0.626439,
2003-06-01, 00:06:01,VALID,918.14,VALID,0,VALID,99.3492,VALID,-0.0339617,VALID,17.9016,VALID,133,VALID,0.582442,
2003-06-01, 00:07:00,VALID,918.117,VALID,0,VALID,99.3149,VALID,-0.0849042,VALID,17.9444,VALID,137,VALID,0.499199,
2003-06-01, 00:08:00,VALID,918.094,VALID,0,VALID,99.4446,VALID,-0.101885,VALID,17.9666,VALID,134,VALID,0.566201,
2003-06-01, 00:09:00,VALID,918.088,VALID,0,VALID,99.4458,VALID,-0.0339617,VALID,17.9823,VALID,127,VALID,0.426258,
2003-06-01, 00:10:01,VALID,918.088,VALID,0,VALID,99.2373,VALID,-0.0509425,VALID,17.9599,VALID,101,VALID,0.677083,
2003-06-01, 00:11:01,VALID,918.069,VALID,0,VALID,99.6302,VALID,-0.0679233,VALID,17.9956,VALID,107,VALID,0.79082,
2003-06-01, 00:12:01,VALID,918.041,VALID,0,VALID,99.7434,VALID,-0.0679233,VALID,18.1247,VALID,108,VALID,0.665465,
2003-06-01, 00:13:00,VALID,918.019,VALID,0,VALID,99.7065,VALID,-0.0679233,VALID,18.1374,VALID,108,VALID,0.770389,
2003-06-01, 00:14:00,VALID,917.988,VALID,0,VALID,99.6544,VALID,-0.0679233,VALID,18.1374,VALID,118,VALID,0.779139,
2003-06-01, 00:15:00,VALID,917.959,VALID,0,VALID,99.6099,VALID,-0.0849042,VALID,18.1183,VALID,132,VALID,0.698117,
2003-06-01, 00:16:00,VALID,917.937,VALID,0,VALID,99.4662,VALID,-0.0509425,VALID,18.0798,VALID,137,VALID,0.491016,
2003-06-01, 00:17:00,VALID,917.913,VALID,0,VALID,99.3377,VALID,-0.0849042,VALID,18.0184,VALID,123,VALID,0.497332,
2003-06-01, 00:18:00,VALID,917.901,VALID,0,VALID,99.0809,VALID,-0.118866,VALID,17.905,VALID,114,VALID,0.543826,
2003-06-01, 00:19:00,VALID,917.882,VALID,0,VALID,99.5374,VALID,-0.0849042,VALID,17.9023,VALID,109,VALID,0.755912,
2003-06-01, 00:20:01,VALID,917.859,VALID,0,VALID,99.7332,VALID,-0.0849042,VALID,18.0247,VALID,110,VALID,0.783854,
2003-06-01, 00:21:00,VALID,917.837,VALID,0,VALID,99.7027,VALID,-0.0849042,VALID,18.0599,VALID,92,VALID,0.728795,
2003-06-01, 00:22:00,VALID,917.812,VALID,0,VALID,99.4611,VALID,-0.0849042,VALID,18.0055,VALID,102,VALID,0.616976,
2003-06-01, 00:23:00,VALID,917.791,VALID,0,VALID,99.5895,VALID,-0.101885,VALID,18.0023,VALID,121,VALID,0.817383,
2003-06-01, 00:24:00,VALID,917.752,VALID,0,VALID,99.6518,VALID,-0.0679233,VALID,18.0307,VALID,123,VALID,0.666295,
2003-06-01, 00:25:00,VALID,917.719,VALID,0,VALID,99.6251,VALID,-0.0679233,VALID,18.0406,VALID,128,VALID,0.759766,
2003-06-01, 00:26:01,VALID,917.706,VALID,0,VALID,99.6417,VALID,0,VALID,18.0563,VALID,128,VALID,0.86808,
2003-06-01, 00:27:00,VALID,917.677,VALID,0,VALID,99.5081,VALID,0.0169808,VALID,18.0169,VALID,139,VALID,0.615337,
2003-06-01, 00:28:00,VALID,917.65,VALID,0,VALID,99.4751,VALID,0,VALID,17.9811,VALID,136,VALID,0.697163,
2003-06-01, 00:29:01,VALID,917.618,VALID,0,VALID,99.5043,VALID,0,VALID,17.985,VALID,130,VALID,0.688528,
2003-06-01, 00:30:00,VALID,917.597,VALID,0,VALID,99.3937,VALID,0,VALID,17.956,VALID,128,VALID,0.597656,
2003-06-01, 00:31:01,VALID,917.569,VALID,0,VALID,99.3492,VALID,0.0169808,VALID,17.8942,VALID,132,VALID,0.507401,
2003-06-01, 00:32:01,VALID,917.565,VALID,0,VALID,99.4051,VALID,0.0169808,VALID,17.8885,VALID,127,VALID,0.412891,
2003-06-01, 00:33:00,VALID,917.555,VALID,0,VALID,99.2729,VALID,0.0169808,VALID,17.8456,VALID,126,VALID,0.420496,
2003-06-01, 00:34:01,VALID,917.553,VALID,0,VALID,99.3479,VALID,0,VALID,17.8269,VALID,124,VALID,0.435697,
2003-06-01, 00:35:00,VALID,917.544,VALID,0,VALID,99.311,VALID,0.0169808,VALID,17.8202,VALID,116,VALID,0.38742,
2003-06-01, 00:36:00,VALID,917.535,VALID,0,VALID,99.2424,VALID,-0.0169808,VALID,17.7917,VALID,101,VALID,0.559416,
2003-06-01, 00:37:01,VALID,917.519,VALID,0,VALID,99.2742,VALID,0,VALID,17.7458,VALID,106,VALID,0.714543,
2003-06-01, 00:38:00,VALID,917.489,VALID,0,VALID,99.5158,VALID,0,VALID,17.7977,VALID,120,VALID,0.777549,
2003-06-01, 00:39:01,VALID,917.445,VALID,0,VALID,99.3835,VALID,0.0339617,VALID,17.8011,VALID,121,VALID,0.804287,
2003-06-01, 00:40:00,VALID,917.409,VALID,0,VALID,99.3085,VALID,0.0509425,VALID,17.7852,VALID,129,VALID,0.807927,
2003-06-01, 00:41:00,VALID,917.399,VALID,0,VALID,99.4064,VALID,0.0169808,VALID,17.7557,VALID,127,VALID,0.740385,
2003-06-01, 00:42:00,VALID,917.393,VALID,0,VALID,99.3339,VALID,-0.0339617,VALID,17.7527,VALID,128,VALID,0.654182,
2003-06-01, 00:43:01,VALID,917.388,VALID,0,VALID,99.2958,VALID,0,VALID,17.7435,VALID,125,VALID,0.723047,
2003-06-01, 00:44:00,VALID,917.363,VALID,0,VALID,99.4293,VALID,0,VALID,17.7428,VALID,121,VALID,0.8731,
2003-06-01, 00:45:00,VALID,917.339,VALID,0,VALID,99.4916,VALID,0,VALID,17.7878,VALID,116,VALID,0.802734,
2003-06-01, 00:46:00,VALID,917.312,VALID,0,VALID,99.4992,VALID,0,VALID,17.8364,VALID,118,VALID,0.960321,
2003-06-01, 00:47:01,VALID,917.296,VALID,0,VALID,99.3466,VALID,0,VALID,17.8497,VALID,122,VALID,0.829268,
2003-06-01, 00:48:00,VALID,917.285,VALID,0,VALID,99.236,VALID,-0.0169808,VALID,17.8592,VALID,121,VALID,0.834882,
2003-06-01, 00:49:00,VALID,917.288,VALID,0,VALID,99.0046,VALID,0,VALID,17.8304,VALID,116,VALID,0.814303,
2003-06-01, 00:50:01,VALID,917.279,VALID,0,VALID,98.8927,VALID,-0.0339617,VALID,17.7951,VALID,114,VALID,0.489139,
2003-06-01, 00:51:01,VALID,917.256,VALID,0,VALID,98.7108,VALID,0.0169808,VALID,17.7398,VALID,115,VALID,0.895765,
2003-06-01, 00:52:00,VALID,917.259,VALID,0,VALID,98.9906,VALID,0,VALID,17.7366,VALID,120,VALID,1.09575,
2003-06-01, 00:53:01,VALID,917.24,VALID,0,VALID,99.1648,VALID,0.0169808,VALID,17.7979,VALID,105,VALID,0.937901,
2003-06-01, 00:54:01,VALID,917.239,VALID,0,VALID,99.1521,VALID,0,VALID,17.8338,VALID,115,VALID,1.0625,
2003-06-01, 00:55:00,VALID,917.229,VALID,0,VALID,99.0313,VALID,0,VALID,17.8592,VALID,117,VALID,1.0123,
2003-06-01, 00:56:00,VALID,917.205,VALID,0,VALID,98.9296,VALID,-0.0169808,VALID,17.8569,VALID,134,VALID,1.15723,
2003-06-01, 00:57:00,VALID,917.188,VALID,0,VALID,98.8863,VALID,-0.0169808,VALID,17.8403,VALID,118,VALID,1.27611,
2003-06-01, 00:58:00,VALID,917.166,VALID,0,VALID,98.9092,VALID,0,VALID,17.8728,VALID,107,VALID,1.04018,
2003-06-01, 00:59:01,VALID,917.151,VALID,0,VALID,98.6791,VALID,-0.0169808,VALID,17.8728,VALID,103,VALID,0.832981,
2003-06-01, 01:00:00,VALID,917.138,VALID,0,VALID,98.4222,VALID,-0.0339617,VALID,17.8205,VALID,122,VALID,0.999566,
2003-06-01, 01:01:01,VALID,917.121,VALID,0,VALID,98.4286,VALID,0,VALID,17.811,VALID,117,VALID,1.20418,
2003-06-01, 01:02:01,VALID,917.093,VALID,0,VALID,98.4324,VALID,0,VALID,17.8308,VALID,117,VALID,1.15701,
2003-06-01, 01:03:01,VALID,917.076,VALID,0,VALID,98.3421,VALID,0,VALID,17.8532,VALID,119,VALID,1.05037,
2003-06-01, 01:04:01,VALID,917.063,VALID,0,VALID,98.1819,VALID,0,VALID,17.8629,VALID,122,VALID,0.916266,
2003-06-01, 01:05:01,VALID,917.056,VALID,0,VALID,98.0674,VALID,-0.0339617,VALID,17.8661,VALID,125,VALID,0.800998,
2003-06-01, 01:06:01,VALID,917.053,VALID,0,VALID,97.9377,VALID,-0.0169808,VALID,17.8562,VALID,123,VALID,0.628516,
2003-06-01, 01:07:01,VALID,917.054,VALID,0,VALID,97.8017,VALID,-0.0169808,VALID,17.85,VALID,126,VALID,0.504991,
2003-06-01, 01:08:01,VALID,917.049,VALID,0,VALID,97.7037,VALID,-0.0679233,VALID,17.8177,VALID,123,VALID,0.474359,
2003-06-01, 01:09:01,VALID,917.036,VALID,0,VALID,97.5639,VALID,-0.0169808,VALID,17.8018,VALID,118,VALID,0.472461,
2003-06-01, 01:10:01,VALID,917.03,VALID,0,VALID,97.6605,VALID,-0.0169808,VALID,17.7893,VALID,129,VALID,0.695703,
2003-06-01, 01:11:01,VALID,917.034,VALID,0,VALID,97.6503,VALID,-0.0679233,VALID,17.7792,VALID,126,VALID,0.609976,
2003-06-01, 01:12:01,VALID,917.016,VALID,0,VALID,97.6503,VALID,-0.0849042,VALID,17.7667,VALID,116,VALID,0.676943,
2003-06-01, 01:13:01,VALID,917.002,VALID,0,VALID,97.986,VALID,-0.0679233,VALID,17.7734,VALID,119,VALID,0.782422,
2003-06-01, 01:14:01,VALID,916.989,VALID,0,VALID,98.1526,VALID,-0.0339617,VALID,17.8022,VALID,119,VALID,0.998633,
2003-06-01, 01:15:01,VALID,916.991,VALID,0,VALID,98.1552,VALID,-0.0169808,VALID,17.8375,VALID,104,VALID,1.09459,
2003-06-01, 01:16:01,VALID,916.999,VALID,0,VALID,98.1132,VALID,-0.0339617,VALID,17.8437,VALID,106,VALID,1.28883,
2003-06-01, 01:17:01,VALID,916.999,VALID,0,VALID,98.1895,VALID,0,VALID,17.9055,VALID,106,VALID,1.15264,
2003-06-01, 01:18:01,VALID,916.998,VALID,0,VALID,97.869,VALID,-0.0339617,VALID,17.9244,VALID,107,VALID,1.02744,
2003-06-01, 01:19:01,VALID,916.998,VALID,0,VALID,97.6262,VALID,-0.0509425,VALID,17.9313,VALID,110,VALID,1.30742,
2003-06-01, 01:20:01,VALID,916.972,VALID,0,VALID,97.5117,VALID,-0.0339617,VALID,17.9373,VALID,117,VALID,1.52384,
2003-06-01, 01:21:01,VALID,916.953,VALID,0,VALID,97.335,VALID,0,VALID,17.9403,VALID,115,VALID,1.2157,
2003-06-01, 01:22:01,VALID,916.934,VALID,0,VALID,97.1976,VALID,-0.0679233,VALID,17.9345,VALID,121,VALID,1.03315,
2003-06-01, 01:23:01,VALID,916.933,VALID,0,VALID,97.1315,VALID,-0.0339617,VALID,17.9313,VALID,114,VALID,1.03185,
2003-06-01, 01:24:01,VALID,916.92,VALID,0,VALID,97.0412,VALID,-0.0509425,VALID,17.9221,VALID,103,VALID,0.943945,
2003-06-01, 01:25:01,VALID,916.892,VALID,0,VALID,97.026,VALID,-0.0169808,VALID,17.8951,VALID,101,VALID,1.03887,
2003-06-01, 01:26:01,VALID,916.879,VALID,0,VALID,97.0819,VALID,-0.0169808,VALID,17.9053,VALID,102,VALID,0.874238,
2003-06-01, 01:27:00,VALID,916.865,VALID,0,VALID,97.1023,VALID,-0.0679233,VALID,17.908,VALID,105,VALID,0.946579,
2003-06-01, 01:28:00,VALID,916.844,VALID,0,VALID,96.9153,VALID,-0.0679233,VALID,17.9085,VALID,100,VALID,0.943638,
2003-06-01, 01:29:00,VALID,916.82,VALID,0,VALID,97.0196,VALID,0,VALID,17.9085,VALID,113,VALID,1.04204,
2003-06-01, 01:30:00,VALID,916.797,VALID,0,VALID,97.1277,VALID,-0.0339617,VALID,17.9246,VALID,109,VALID,0.998944,
2003-06-01, 01:31:00,VALID,916.787,VALID,0,VALID,97.0247,VALID,0,VALID,17.9309,VALID,110,VALID,1.06543,
2003-06-01, 01:32:00,VALID,916.787,VALID,0,VALID,96.8251,VALID,-0.0509425,VALID,17.9375,VALID,110,VALID,0.808482,
2003-06-01, 01:33:00,VALID,916.805,VALID,0,VALID,96.4855,VALID,-0.0169808,VALID,17.9122,VALID,110,VALID,0.33138,
2003-06-01, 01:34:00,VALID,916.811,VALID,0,VALID,96.3151,VALID,-0.0339617,VALID,17.8504,VALID,111,VALID,0.365625,
2003-06-01, 01:35:00,VALID,916.809,VALID,0,VALID,96.1002,VALID,0,VALID,17.7854,VALID,111,VALID,0.480058,
2003-06-01, 01:36:00,VALID,916.814,VALID,0,VALID,96.0468,VALID,-0.0169808,VALID,17.7114,VALID,115,VALID,0.574013,
2003-06-01, 01:37:00,VALID,916.798,VALID,0,VALID,96.408,VALID,-0.0509425,VALID,17.6665,VALID,136,VALID,0.549959,
2003-06-01, 01:38:00,VALID,916.769,VALID,0,VALID,96.5161,VALID,-0.0339617,VALID,17.6082,VALID,136,VALID,0.251234,
2003-06-01, 01:39:00,VALID,916.758,VALID,0,VALID,96.2121,VALID,-0.0169808,VALID,17.5404,VALID,136,VALID,0.0904605,
2003-06-01, 01:40:00,VALID,916.723,VALID,0,VALID,95.9693,VALID,-0.0509425,VALID,17.4669,VALID,136,VALID,0.351367,
2003-06-01, 01:41:00,VALID,916.703,VALID,0,VALID,96.1536,VALID,0.0509425,VALID,17.3784,VALID,136,VALID,0.487822,
2003-06-01, 01:42:00,VALID,916.688,VALID,0,VALID,96.2007,VALID,0.0509425,VALID,17.3038,VALID,136,VALID,0.527845,
2003-06-01, 01:43:00,VALID,916.696,VALID,0,VALID,96.2312,VALID,0.0339617,VALID,17.2399,VALID,136,VALID,0.47496,
2003-06-01, 01:44:00,VALID,916.672,VALID,0,VALID,96.4003,VALID,0.0509425,VALID,17.1651,VALID,136,VALID,0.411184,
2003-06-01, 01:45:00,VALID,916.651,VALID,0,VALID,96.6102,VALID,0.0849042,VALID,17.1205,VALID,136,VALID,0.467748,
2003-06-01, 01:46:00,VALID,916.633,VALID,0,VALID,96.9509,VALID,0.0849042,VALID,17.0917,VALID,136,VALID,0.490337,
2003-06-01, 01:47:00,VALID,916.604,VALID,0,VALID,97.0692,VALID,-0.0339617,VALID,17.067,VALID,136,VALID,0.344351,
2003-06-01, 01:48:00,VALID,916.595,VALID,0,VALID,96.9675,VALID,-0.0339617,VALID,17.0216,VALID,136,VALID,0.426067,
2003-06-01, 01:49:00,VALID,916.59,VALID,0,VALID,97.0629,VALID,-0.0339617,VALID,16.9665,VALID,136,VALID,0.297075,
2003-06-01, 01:50:00,VALID,916.59,VALID,0,VALID,97.5295,VALID,-0.0509425,VALID,16.9704,VALID,136,VALID,0.173024,
2003-06-01, 01:51:00,VALID,916.601,VALID,0,VALID,96.6,VALID,-0.0679233,VALID,16.8803,VALID,130,VALID,0.25293,
2003-06-01, 01:52:00,VALID,916.619,VALID,0,VALID,95.6069,VALID,-0.0169808,VALID,16.6413,VALID,62,VALID,0.442356,
2003-06-01, 01:53:00,VALID,916.655,VALID,0,VALID,96.1969,VALID,-0.0339617,VALID,16.4899,VALID,41,VALID,0.553125,
2003-06-01, 01:54:00,VALID,916.661,VALID,0,VALID,97.0578,VALID,-0.0679233,VALID,16.4377,VALID,41,VALID,0.554276,
2003-06-01, 01:55:00,VALID,916.661,VALID,0,VALID,97.3808,VALID,-0.0509425,VALID,16.425,VALID,41,VALID,0.341082,
2003-06-01, 01:56:00,VALID,916.665,VALID,0,VALID,97.5206,VALID,-0.0169808,VALID,16.3932,VALID,41,VALID,0.056799,
2003-06-01, 01:57:00,VALID,916.648,VALID,0,VALID,97.4227,VALID,-0.0509425,VALID,16.3411,VALID,41,VALID,0.110777,
2003-06-01, 01:58:00,VALID,916.629,VALID,0,VALID,97.1468,VALID,-0.0509425,VALID,16.2543,VALID,41,VALID,0.337081,
2003-06-01, 01:59:00,VALID,916.607,VALID,0,VALID,97.0743,VALID,-0.0509425,VALID,16.1672,VALID,41,VALID,0.402138,
2003-06-01, 02:00:00,VALID,916.61,VALID,0,VALID,97.9619,VALID,-0.0679233,VALID,16.1964,VALID,41,VALID,0.453926,
2003-06-01, 02:01:00,VALID,916.603,VALID,0,VALID,98.295,VALID,-0.0509425,VALID,16.2448,VALID,44,VALID,0.364784,
2003-06-01, 02:02:00,VALID,916.621,VALID,0,VALID,98.1717,VALID,-0.101885,VALID,16.2387,VALID,45,VALID,0.163261,
2003-06-01, 02:03:00,VALID,916.621,VALID,0,VALID,98.2429,VALID,-0.0169808,VALID,16.226,VALID,45,VALID,0.00351562,
2003-06-01, 02:04:00,VALID,916.631,VALID,0,VALID,98.3675,VALID,-0.0849042,VALID,16.2291,VALID,45,VALID,0.188867,
2003-06-01, 02:05:00,VALID,916.631,VALID,0,VALID,98.501,VALID,-0.101885,VALID,16.2059,VALID,45,VALID,0.369474,
2003-06-01, 02:06:00,VALID,916.609,VALID,0,VALID,98.6854,VALID,-0.0679233,VALID,16.2319,VALID,45,VALID,0.0683036,
2003-06-01, 02:07:00,VALID,916.565,VALID,0,VALID,98.5265,VALID,0,VALID,16.1996,VALID,45,VALID,0.0190034,
2003-06-01, 02:08:00,VALID,916.518,VALID,0,VALID,98.1997,VALID,-0.0339617,VALID,16.1127,VALID,45,VALID,0.423564,
2003-06-01, 02:09:00,VALID,916.5,VALID,0,VALID,98.0865,VALID,0,VALID,16.042,VALID,45,VALID,0.456926,
2003-06-01, 02:10:00,VALID,916.477,VALID,0,VALID,98.3764,VALID,-0.0509425,VALID,16.0158,VALID,45,VALID,0.326601,
2003-06-01, 02:11:00,VALID,916.495,VALID,0,VALID,98.8545,VALID,-0.0509425,VALID,16.074,VALID,45,VALID,0.284334,
2003-06-01, 02:12:00,VALID,916.497,VALID,0,VALID,99.1661,VALID,-0.0849042,VALID,16.1488,VALID,45,VALID,0.0829327,
2003-06-01, 02:13:00,VALID,916.486,VALID,0,VALID,99.5603,VALID,-0.0849042,VALID,16.2389,VALID,45,VALID,0.371094,
2003-06-01, 02:14:00,VALID,916.472,VALID,0,VALID,99.7472,VALID,-0.101885,VALID,16.3682,VALID,45,VALID,0.442578,
2003-06-01, 02:15:00,VALID,916.445,VALID,0,VALID,99.4509,VALID,-0.0679233,VALID,16.4071,VALID,67,VALID,0.721354,
2003-06-01, 02:16:00,VALID,916.43,VALID,0,VALID,99.5081,VALID,-0.0849042,VALID,16.4133,VALID,75,VALID,0.642829,
2003-06-01, 02:17:00,VALID,916.42,VALID,0,VALID,99.2831,VALID,-0.0509425,VALID,16.3811,VALID,76,VALID,0.178906,
2003-06-01, 02:18:00,VALID,916.431,VALID,0,VALID,98.8062,VALID,-0.0679233,VALID,16.2781,VALID,76,VALID,0.283984,
2003-06-01, 02:19:00,VALID,916.422,VALID,0,VALID,98.8088,VALID,-0.0509425,VALID,16.1781,VALID,80,VALID,0.709736,
2003-06-01, 02:20:00,VALID,916.407,VALID,0,VALID,99.5603,VALID,-0.0679233,VALID,16.242,VALID,91,VALID,0.809333,
2003-06-01, 02:21:00,VALID,916.377,VALID,0,VALID,99.5196,VALID,-0.0339617,VALID,16.3164,VALID,99,VALID,0.44082,
2003-06-01, 02:22:00,VALID,916.377,VALID,0,VALID,99.0046,VALID,-0.0509425,VALID,16.265,VALID,100,VALID,0.184961,
2003-06-01, 02:23:00,VALID,916.388,VALID,0,VALID,99.0415,VALID,-0.0509425,VALID,16.1845,VALID,100,VALID,0,
2003-06-01, 02:24:00,VALID,916.388,VALID,0,VALID,99.6811,VALID,-0.0169808,VALID,16.2643,VALID,100,VALID,0.232008,
2003-06-01, 02:25:00,VALID,916.372,VALID,0,VALID,99.3098,VALID,-0.0169808,VALID,16.3196,VALID,96,VALID,0.613982,
2003-06-01, 02:26:00,VALID,916.372,VALID,0,VALID,99.3657,VALID,-0.0509425,VALID,16.2682,VALID,101,VALID,0.880409,
2003-06-01, 02:27:00,VALID,916.371,VALID,0,VALID,99.8642,VALID,-0.0169808,VALID,16.3936,VALID,108,VALID,1.0377,
2003-06-01, 02:28:00,VALID,916.365,VALID,0,VALID,99.9929,VALID,-0.0169808,VALID,16.6452,VALID,113,VALID,1.3772,
2003-06-01, 02:29:00,VALID,916.367,VALID,0,VALID,100,VALID,0,VALID,16.8454,VALID,116,VALID,0.920922,
2003-06-01, 02:30:00,VALID,916.354,VALID,0,VALID,100,VALID,-0.0679233,VALID,16.8422,VALID,122,VALID,0.962204,
2003-06-01, 02:31:00,VALID,916.353,VALID,0,VALID,99.9845,VALID,-0.0509425,VALID,16.8233,VALID,126,VALID,0.619591,
2003-06-01, 02:32:00,VALID,916.343,VALID,0,VALID,99.8591,VALID,-0.0169808,VALID,16.7553,VALID,119,VALID,0.614844,
2003-06-01, 02:33:00,VALID,916.345,VALID,0,VALID,99.737,VALID,-0.0509425,VALID,16.7261,VALID,110,VALID,0.795732,
2003-06-01, 02:34:00,VALID,916.352,VALID,0,VALID,99.7968,VALID,-0.0169808,VALID,16.7293,VALID,109,VALID,0.98609,
2003-06-01, 02:35:00,VALID,916.37,VALID,0,VALID,99.854,VALID,-0.0169808,VALID,16.794,VALID,110,VALID,1.03568,
2003-06-01, 02:36:00,VALID,916.406,VALID,0,VALID,99.8489,VALID,-0.0339617,VALID,16.8231,VALID,112,VALID,0.877604,
2003-06-01, 02:37:00,VALID,916.431,VALID,0,VALID,99.8477,VALID,-0.0339617,VALID,16.8489,VALID,121,VALID,0.913876,
2003-06-01, 02:38:00,VALID,916.439,VALID,0,VALID,99.8299,VALID,-0.0339617,VALID,16.8555,VALID,122,VALID,1.0057,
2003-06-01, 02:39:00,VALID,916.461,VALID,0,VALID,99.7548,VALID,-0.101885,VALID,16.8519,VALID,105,VALID,0.913477,
2003-06-01, 02:40:00,VALID,916.473,VALID,0,VALID,99.6646,VALID,-0.0679233,VALID,16.8196,VALID,109,VALID,1.01384,
2003-06-01, 02:41:00,VALID,916.446,VALID,0,VALID,99.7472,VALID,0,VALID,16.8523,VALID,113,VALID,0.883681,
2003-06-01, 02:42:00,VALID,916.441,VALID,0,VALID,99.3517,VALID,-0.0509425,VALID,16.8001,VALID,102,VALID,0.574777,
2003-06-01, 02:43:00,VALID,916.436,VALID,0,VALID,99.2386,VALID,-0.0339617,VALID,16.7166,VALID,104,VALID,0.635485,
2003-06-01, 02:44:00,VALID,916.429,VALID,0,VALID,99.2119,VALID,-0.0679233,VALID,16.6652,VALID,111,VALID,0.673314,
2003-06-01, 02:45:00,VALID,916.409,VALID,0,VALID,99.1966,VALID,-0.0679233,VALID,16.6232,VALID,121,VALID,0.613281,
2003-06-01, 02:46:00,VALID,916.403,VALID,0,VALID,99.3428,VALID,-0.0339617,VALID,16.623,VALID,128,VALID,0.758635,
2003-06-01, 02:47:00,VALID,916.39,VALID,0,VALID,99.3034,VALID,-0.0509425,VALID,16.6194,VALID,129,VALID,0.583676,
2003-06-01, 02:48:00,VALID,916.392,VALID,0,VALID,99.3136,VALID,-0.0679233,VALID,16.6164,VALID,125,VALID,0.524805,
2003-06-01, 02:49:00,VALID,916.369,VALID,0,VALID,99.3288,VALID,-0.0339617,VALID,16.62,VALID,123,VALID,0.538603,
2003-06-01, 02:50:00,VALID,916.366,VALID,0,VALID,99.25,VALID,-0.0509425,VALID,16.6067,VALID,119,VALID,0.373197,
2003-06-01, 02:51:00,VALID,916.331,VALID,0,VALID,99.0567,VALID,-0.0509425,VALID,16.5512,VALID,119,VALID,0.294071,
2003-06-01, 02:52:00,VALID,916.332,VALID,0,VALID,98.8774,VALID,-0.0509425,VALID,16.497,VALID,114,VALID,0.377262,
2003-06-01, 02:53:00,VALID,916.295,VALID,0,VALID,98.7325,VALID,-0.0339617,VALID,16.4131,VALID,104,VALID,0.457532,
2003-06-01, 02:54:00,VALID,916.286,VALID,0,VALID,98.707,VALID,-0.0339617,VALID,16.3355,VALID,97,VALID,0.56764,
2003-06-01, 02:55:00,VALID,916.262,VALID,0,VALID,99.1318,VALID,-0.0169808,VALID,16.3454,VALID,96,VALID,0.658854,
2003-06-01, 02:56:00,VALID,916.241,VALID,0,VALID,99.5336,VALID,-0.0679233,VALID,16.4133,VALID,96,VALID,0.629383,
2003-06-01, 02:57:00,VALID,916.226,VALID,0,VALID,99.4776,VALID,-0.0679233,VALID,16.4751,VALID,96,VALID,0.614984,
2003-06-01, 02:58:00,VALID,916.21,VALID,0,VALID,99.5387,VALID,-0.0679233,VALID,16.4942,VALID,96,VALID,0.696691,
2003-06-01, 02:59:00,VALID,916.209,VALID,0,VALID,99.4878,VALID,-0.0509425,VALID,16.5007,VALID,98,VALID,0.611523,
2003-06-01, 03:00:00,VALID,916.217,VALID,0,VALID,99.7447,VALID,-0.0509425,VALID,16.5394,VALID,105,VALID,0.653927,
2003-06-01, 03:01:00,VALID,916.221,VALID,0,VALID,99.8362,VALID,-0.0509425,VALID,16.6325,VALID,115,VALID,0.578711,
2003-06-01, 03:02:00,VALID,916.201,VALID,0,VALID,99.8375,VALID,-0.0339617,VALID,16.6845,VALID,130,VALID,0.723684,
2003-06-01, 03:03:00,VALID,916.202,VALID,0,VALID,99.7841,VALID,-0.0849042,VALID,16.7104,VALID,132,VALID,0.596227,
2003-06-01, 03:04:00,VALID,916.196,VALID,0,VALID,99.559,VALID,-0.0679233,VALID,16.6912,VALID,133,VALID,0.504856,
2003-06-01, 03:05:00,VALID,916.211,VALID,0,VALID,99.4598,VALID,-0.0679233,VALID,16.6499,VALID,133,VALID,0.497796,
2003-06-01, 03:06:00,VALID,916.208,VALID,0,VALID,99.4128,VALID,-0.0679233,VALID,16.6396,VALID,132,VALID,0.419779,
2003-06-01, 03:07:00,VALID,916.184,VALID,0,VALID,98.7223,VALID,-0.0849042,VALID,16.5198,VALID,109,VALID,0.403988,
2003-06-01, 03:08:00,VALID,916.178,VALID,0,VALID,98.6574,VALID,-0.0679233,VALID,16.4006,VALID,101,VALID,0.410857,
2003-06-01, 03:09:00,VALID,916.168,VALID,0,VALID,98.6028,VALID,-0.0679233,VALID,16.3037,VALID,115,VALID,0.623397,
2003-06-01, 03:10:00,VALID,916.157,VALID,0,VALID,99.1882,VALID,-0.0509425,VALID,16.3299,VALID,132,VALID,0.84375,
2003-06-01, 03:11:00,VALID,916.157,VALID,0,VALID,99.3581,VALID,0.0169808,VALID,16.374,VALID,137,VALID,0.727539,
2003-06-01, 03:12:00,VALID,916.152,VALID,0,VALID,99.5056,VALID,0.0169808,VALID,16.4351,VALID,129,VALID,0.778906,
2003-06-01, 03:13:00,VALID,916.169,VALID,0,VALID,99.7103,VALID,0,VALID,16.5289,VALID,128,VALID,0.633194,
2003-06-01, 03:14:00,VALID,916.171,VALID,0,VALID,99.4789,VALID,-0.0169808,VALID,16.5641,VALID,127,VALID,0.550893,
2003-06-01, 03:15:00,VALID,916.172,VALID,0,VALID,99.3543,VALID,0,VALID,16.522,VALID,123,VALID,0.677998,
2003-06-01, 03:16:00,VALID,916.153,VALID,0,VALID,99.5883,VALID,0,VALID,16.5448,VALID,125,VALID,0.895693,
2003-06-01, 03:17:00,VALID,916.149,VALID,0,VALID,99.6862,VALID,0,VALID,16.5994,VALID,123,VALID,0.850718,
2003-06-01, 03:18:00,VALID,916.135,VALID,0,VALID,99.7408,VALID,0,VALID,16.6678,VALID,113,VALID,0.821456,
2003-06-01, 03:19:00,VALID,916.109,VALID,0,VALID,99.6811,VALID,0,VALID,16.6964,VALID,113,VALID,0.703742,
2003-06-01, 03:20:00,VALID,916.095,VALID,0,VALID,99.6798,VALID,0.0339617,VALID,16.7089,VALID,136,VALID,0.714143,
2003-06-01, 03:21:00,VALID,916.084,VALID,0,VALID,99.5272,VALID,0.0339617,VALID,16.7024,VALID,149,VALID,0.733073,
2003-06-01, 03:22:00,VALID,916.088,VALID,0,VALID,99.4471,VALID,0,VALID,16.6837,VALID,146,VALID,0.966602,
2003-06-01, 03:23:00,VALID,916.077,VALID,0,VALID,99.6162,VALID,0,VALID,16.6899,VALID,146,VALID,0.980469,
2003-06-01, 03:24:00,VALID,916.075,VALID,0,VALID,99.7358,VALID,0.0169808,VALID,16.7575,VALID,143,VALID,0.77524,
2003-06-01, 03:25:00,VALID,916.057,VALID,0,VALID,99.662,VALID,0,VALID,16.7771,VALID,135,VALID,0.671875,
2003-06-01, 03:26:00,VALID,916.054,VALID,0,VALID,99.6226,VALID,0,VALID,16.79,VALID,131,VALID,0.555664,
2003-06-01, 03:27:00,VALID,916.029,VALID,0,VALID,99.3288,VALID,0.0169808,VALID,16.7543,VALID,128,VALID,0.416466,
2003-06-01, 03:28:00,VALID,916.019,VALID,0,VALID,99.0885,VALID,0.0169808,VALID,16.651,VALID,126,VALID,0.530617,
2003-06-01, 03:29:00,VALID,916.004,VALID,0,VALID,99.2309,VALID,0,VALID,16.5865,VALID,130,VALID,0.627148,
2003-06-01, 03:30:00,VALID,916.001,VALID,0,VALID,99.4662,VALID,0.0169808,VALID,16.6026,VALID,141,VALID,0.694922,
2003-06-01, 03:31:00,VALID,915.992,VALID,0,VALID,99.6556,VALID,0,VALID,16.6674,VALID,149,VALID,0.978674,
2003-06-01, 03:32:00,VALID,915.977,VALID,0,VALID,99.648,VALID,0,VALID,16.7061,VALID,144,VALID,0.895833,
2003-06-01, 03:33:00,VALID,915.984,VALID,0,VALID,99.6518,VALID,0,VALID,16.7386,VALID,146,VALID,0.690905,